TimeCST,TemperatureF,Dew PointF,Humidity,Sea Level PressureIn,VisibilityMPH,Wind Direction,Wind SpeedMPH,Gust SpeedMPH,PrecipitationIn,Events,Conditions,WindDirDegrees,DateUTC
12:53 AM,21.9,16.0,78,30.25,10.0,Calm,Calm,-,N/A,,Clear,0,2011-11-30 06:53:00
1:53 AM,21.2,17.6,86,30.21,10.0,Calm,Calm,-,N/A,,Clear,0,2011-11-30 07:53:00
2:53 AM,21.0,18.0,88,30.23,10.0,Calm,Calm,-,N/A,,Clear,0,2011-11-30 08:53:00
3:53 AM,21.0,19.0,92,30.21,10.0,SSE,4.6,-,N/A,,Clear,160,2011-11-30 09:53:00
4:53 AM,21.0,18.0,88,30.19,10.0,SSE,5.8,-,N/A,,Clear,160,2011-11-30 10:53:00
5:53 AM,21.9,19.0,89,30.17,10.0,Calm,Calm,-,N/A,,Clear,0,2011-11-30 11:53:00
6:53 AM,19.9,18.0,92,30.19,10.0,South,4.6,-,N/A,,Clear,190,2011-11-30 12:53:00
7:53 AM,19.9,18.0,92,30.20,10.0,NNW,4.6,-,N/A,,Clear,330,2011-11-30 13:53:00
8:53 AM,28.0,24.1,85,30.19,10.0,Calm,Calm,-,N/A,,Clear,0,2011-11-30 14:53:00
9:53 AM,33.1,23.0,66,30.18,10.0,South,3.5,-,N/A,,Clear,190,2011-11-30 15:53:00
10:53 AM,39.0,23.0,53,30.15,10.0,South,5.8,-,N/A,,Clear,190,2011-11-30 16:53:00
11:53 AM,45.0,19.0,36,30.12,10.0,SSW,10.4,-,N/A,,Clear,200,2011-11-30 17:53:00
12:53 PM,48.0,19.0,32,30.07,10.0,SSW,10.4,-,N/A,,Clear,200,2011-11-30 18:53:00
1:53 PM,48.9,21.9,35,30.03,10.0,South,17.3,-,N/A,,Clear,180,2011-11-30 19:53:00
2:53 PM,50.0,21.9,33,30.01,10.0,South,17.3,-,N/A,,Clear,180,2011-11-30 20:53:00
3:53 PM,48.9,21.0,33,30.01,10.0,South,16.1,-,N/A,,Clear,180,2011-11-30 21:53:00
4:53 PM,46.0,21.0,37,30.00,10.0,South,10.4,-,N/A,,Clear,170,2011-11-30 22:53:00
5:53 PM,45.0,21.9,40,30.00,10.0,South,12.7,-,N/A,,Clear,170,2011-11-30 23:53:00
6:53 PM,44.1,21.0,40,30.01,10.0,South,17.3,-,N/A,,Clear,170,2011-12-01 00:53:00
7:53 PM,42.1,19.9,41,30.02,10.0,South,12.7,-,N/A,,Clear,170,2011-12-01 01:53:00
8:53 PM,39.9,21.0,47,30.04,10.0,South,11.5,-,N/A,,Clear,170,2011-12-01 02:53:00
9:53 PM,37.9,21.0,51,30.04,10.0,South,6.9,-,N/A,,Clear,180,2011-12-01 03:53:00
10:53 PM,37.9,21.0,51,30.06,10.0,South,6.9,-,N/A,,Clear,180,2011-12-01 04:53:00
11:53 PM,37.9,19.9,48,30.06,10.0,South,8.1,-,N/A,,Clear,180,2011-12-01 05:53:00